Regional Weather Roundup
Issued by NWS San Angelo, TX

Home | Current Version | Previous Version | Text Only | Print | Product List | Glossary Off
Versions: 1 2 3 4 5 6 7 8 9 10 11 12 13 14 15 16 17 18 19 20 21 22 23 24 25 26 27 28 29 30 31 32 33 34 35 36 37 38 39 40 41 42 43 44 45 46 47 48 49 50

000
ASUS44 KSJT 220410
RWRSJT
WEST CENTRAL TEXAS REGIONAL WEATHER ROUNDUP
NATIONAL WEATHER SERVICE SAN ANGELO TX
1000 PM CST SUN DEC 21 2014

NOTE: "FAIR" INDICATES FEW OR NO CLOUDS BELOW 12,000 FEET WITH NO
SIGNIFICANT WEATHER AND/OR OBSTRUCTIONS TO VISIBILITY.

TXZ049-054-064>066-071>073-076>078-098-099-113-114-127-128-139-140-
154-155-168>170-220500
...LOCATIONS ACROSS WEST CENTRAL TEXAS...

CITY           SKY/WX    TMP DP  RH WIND       PRES   REMARKS
SAN ANGELO     CLOUDY    49  44  83 SW17      29.77R
ABILENE        CLOUDY    53  43  68 S18G30    29.69S
DYESS AFB      CLOUDY    53  42  65 SW22      29.67S
JUNCTION       CLOUDY    50  46  86 SW3       29.81S
SWEETWATER     CLOUDY    55  41  59 S15       29.70S
BROWNWOOD      CLOUDY    48  45  87 S8        29.76R
COLEMAN        CLOUDY    49  45  85 SW12G17   29.74S
SONORA         CLOUDY    52  48  87 SW13G18   29.85S
OZONA          CLOUDY    50  46  87 SW12G20   29.83S
BRADY          PTCLDY    46  46 100 S9        29.77S
$$

TEXAS PANHANDLE/OKLAHOMA PANHANDLE

CITY           SKY/WX    TMP DP  RH WIND       PRES   REMARKS
AMARILLO       PTCLDY    48  28  46 W10       29.59R
BORGER         CLEAR     44  28  53 SW6       29.57R
CANADIAN       CLOUDY    46  45  95 S9        29.57F
DALHART        MOCLDY    38  26  62 W8        29.60S WCI  32
DUMAS          PTCLDY    38  22  52 W7        29.58S WCI  32
GUYMON         NOT AVBL
HEREFORD       CLEAR     43  30  59 W13       29.62R WCI  37
PAMPA          PTCLDY    39  29  67 S9        29.57S WCI  33
PERRYTON       PTCLDY    38  33  81 SE8       29.55F WCI  32
$$

SOUTHERN PANHANDLE/SOUTH PLAINS/ROLLING PLAINS

CITY           SKY/WX    TMP DP  RH WIND       PRES   REMARKS
LUBBOCK        PTCLDY    52  28  39 W14       29.61F
SNYDER         CLOUDY    50  30  45 S10       29.67F
CHILDRESS      MOCLDY    45  35  68 S9        29.56F
SEMINOLE       MOCLDY    54  28  36 W22G30    29.72S
$$

PERMIAN BASIN

CITY           SKY/WX    TMP DP  RH WIND       PRES   REMARKS
MIDLAND        MOCLDY    58  26  29 W17       29.73S
ODESSA         CLOUDY    57  24  28 W14       29.75S
WINK           PTCLDY    58  24  27 W15       29.73S
$$

FAR WEST/SOUTHWEST MOUNTAINS/TRANS PECOS

CITY           SKY/WX    TMP DP  RH WIND       PRES   REMARKS
ALPINE         CLOUDY    57  21  25 E3        29.97R
DRYDEN           N/A     47  45  93 N6        29.80R
EL PASO        MOCLDY    56  27  32 SE10G20   29.91R
FORT STOCKTON  CLOUDY    56  24  29 SW13      29.80S
GUADALUPE PASS NOT AVBL
MARFA          MOCLDY    52  21  30 W23       29.95F
PECOS          MOCLDY    59  26  28 SW17      29.77F
$$

DALLAS/FORT WORTH METROPLEX

CITY           SKY/WX    TMP DP  RH WIND       PRES   REMARKS
DFW AIRPORT    CLOUDY    52  47  83 S15       29.77F
FTW MEACHAM    CLOUDY    52  47  83 S16       29.75F HAZE
DAL-EXECUTIVE  CLOUDY    53  47  79 S9G17     29.78F
GRAND PRAIRIE  CLOUDY   N/A N/A N/A MISG      29.79F
ADDISON        CLOUDY    52  47  84 S14G20    29.79F
MESQUITE       CLOUDY    51  47  87 S13       29.81F
LANCASTER      CLOUDY    51  46  84 S12       29.80F
$$

NORTH CENTRAL TEXAS

CITY           SKY/WX    TMP DP  RH WIND       PRES   REMARKS
SHRMAN/DENISON CLOUDY    50  48  93 SE16      29.77F
GAINESVILLE    CLOUDY    49  46  89 SE13G20   29.75F
BRIDGEPORT     CLOUDY    50  48  93 S12       29.74F
DENTON         CLOUDY    51  47  86 S15       29.74F
WAXAHACHIE     CLOUDY    51  50  97 S10       29.80F
GRANBURY       CLOUDY    51  48  89 SE7       29.77F
$$

WESTERN NORTH TEXAS

CITY           SKY/WX    TMP DP  RH WIND       PRES   REMARKS
WICHITA FALLS  MOCLDY    49  44  83 S18       29.63F
VERNON         CLEAR     50  41  71 S10       29.61S
BRECKENRIDGE   MOCLDY    54  44  68 S18G24    29.68F
COMANCHE       CLOUDY    50  48  94 S12G18    29.76S
$$

CENTRAL AND SOUTH CENTRAL TEXAS

CITY           SKY/WX    TMP DP  RH WIND       PRES   REMARKS
AUSTIN/BERGSTM CLOUDY    55  52  89 S9        29.85F
WACO           CLOUDY    54  50  86 S15       29.80F
HILLSBORO      CLOUDY    53  49  85 S14       29.80F
TEMPLE         CLOUDY    54  46  76 S17G23    29.80S
KILLEEN-GRAY   MOCLDY    52  48  86 S15G23    29.80F
FORT HOOD      CLOUDY    54  49  83 S17G23    29.80S
GEORGETOWN     CLOUDY    55  48  76 S15       29.82F
LAGO VISTA     CLOUDY    54  49  83 S13G23    29.84F
SAN MARCOS     CLOUDY    54  52  94 S8        29.86F
NEW BRAUNFELS  CLOUDY    55  53  93 S5        29.86F FOG
RANDOLPH AFB   CLOUDY    54  53  94 SW5       29.88F
SAN ANTONIO    CLOUDY    56  52  86 SW6       29.88F
STINSON        CLOUDY    55  53  93 CALM      29.86F
PLEASANTON     NOT AVBL
LA GRANGE      CLOUDY    58  55  90 S8        29.85F
GIDDINGS       CLOUDY    55  52  87 S8        29.89F
$$

EAST TEXAS

CITY           SKY/WX    TMP DP  RH WIND       PRES   REMARKS
PARIS          CLOUDY    48  43  81 S12       29.83F
CLARKSVILLE    NOT AVBL
TYLER          CLOUDY    50  46  86 S8        29.84S
LONGVIEW       CLOUDY    52  46  80 S10       29.83F
PALESTINE      CLOUDY    51  48  89 SE6       29.85F
NACOGDOCHES    MOCLDY    48  45  87 SE7       29.88F
$$

TEXAS HILL COUNTRY AND EDWARDS PLATEAU

CITY           SKY/WX    TMP DP  RH WIND       PRES   REMARKS
LLANO          CLOUDY    45  45 100 CALM      29.85S
HORSESHOE BAY  CLOUDY    53  47  79 S7        29.83S
KERRVILLE      CLOUDY    51  48  90 S9        29.85F
FREDERICKSBRG  CLOUDY    50  46  88 SW13      29.84F
ROCKSPRINGS    CLOUDY    50  48  93 S12G18    29.85S
HONDO          CLOUDY    54  49  83 S3        29.89S
UVALDE         PTCLDY    45  45  98 E5        29.87F FOG
DEL RIO        PTCLDY    51  48  89 E9        29.81F
$$

SOUTHEAST TEXAS

CITY           SKY/WX    TMP DP  RH WIND       PRES   REMARKS
COLLEGE STN    CLOUDY    57  51  80 S10       29.85F
CALDWELL       CLOUDY    55  54  94 S9        29.88F
CROCKETT         N/A     55  52  88 SE9       29.88F
BRENHAM        CLOUDY    58  54  85 S10       29.87F
HUNTSVILLE     CLOUDY    56  49  77 S9        29.87F
CONROE         CLOUDY    55  51  86 SE12      29.90F
HOUSTON BUSH   CLOUDY    55  52  89 S7        29.91S
HOUSTON HOBBY  MOCLDY    55  54  96 SE6       29.91F
PERLAND        CLOUDY    55  53  93 E8        29.92F FOG
WHARTON        CLOUDY    56  54  94 SE5       29.92R
$$

THE UPPER TEXAS COAST

CITY           SKY/WX    TMP DP  RH WIND       PRES   REMARKS
ORANGE         CLOUDY    53  51  93 E3        29.95F
PORT ARTHUR    CLOUDY    54  51  90 CALM      29.93S
GALVESTON      PTCLDY    59  57  93 E9        29.92F
ANGLETON       PTCLDY    54  54 100 CALM      29.90F
BAY CITY         N/A     55  55 100 CALM      29.90F FOG
$$

TEXAS COASTAL BEND, RIO GRANDE PLAINS DEEP SOUTH TEXAS

CITY           SKY/WX    TMP DP  RH WIND       PRES   REMARKS
VICTORIA       CLOUDY    59  57  93 S3        29.90S
BEEVILLE       CLOUDY    58  57  95 SE7       29.89F
ROCKPORT       MOCLDY    59  57  93 E3        29.89F
PORT ARANSAS   PTCLDY    60  59  96 CALM      29.89F
PORT LAVACA    CLOUDY    60  58  96 SE6       29.90F
CORPUS CHRISTI MOCLDY    59  56  89 CALM      29.90F
KINGSVILLE NAS CLOUDY    61  59  93 SW3       29.91F
COTULLA        CLEAR     52  50  93 SE6       29.86F
LAREDO         NOT AVBL
BROWNSVILLE    MOCLDY    61  60  97 CALM      29.91F FOG
PORT ISABEL    CLOUDY    63  61  93 W3        29.91S FOG
HEBBRONVILLE   HVY RAIN  57  56  97 SE7       29.91S
MCALLEN        CLOUDY    60  58  92 CALM      29.93F
WESLACO        CLOUDY    61  58  88 CALM      29.92F FOG
FALFURRIAS     NOT AVBL
EDINBURG       CLOUDY    61  57  88 CALM      29.93F
$$



USA.gov is the U.S. government's official web portal to all federal, state and local government web resources and services.